User: anonymous   Login
Location: Peebles
(55.6412°N, 3.1714°W)
Time: 07:18:27
(UTC+00:00)
Language:

YAOGAN 1 - Orbit

View from above orbital plane
View from above orbital plane
View from above satellite
View from above satellite

Ground track
Ground track

The orbit data is extracted from the following two-line orbital elements,

1 29092U 06015A   21336.83597630  .00000181  00000-0  28670-4 0  9997
2 29092  97.8939   2.3666 0001414  91.9388 268.1988 14.83228774843799
Epoch (UTC): 02 December 2021 20:03:48
Eccentricity: 0.0001414
inclination: 97.8939°
perigee height: 618 km
apogee height: 620 km
right ascension of ascending node: 2.3666°
argument of perigee: 91.9388°
revolutions per day: 14.83228774
mean anomaly at epoch: 268.1988°
orbit number at epoch: 84379

The dashed part of the orbit path shows where the satellite is in the earth's shadow,  

DLR